When you browse on this site, cookies collect data to enhance your experience and personalize the content and advertising you see.
Visit our Privacy Policy to learn more. By continuing to use the site, you agree to this use of cookies and data.
  • In Denmark
  • List of Countries
  • For 7 days
  • Water Temperature
  • Weather Map
  • Weather Widgets
  • user-avatar
    Login

    Hourly Weather Santiago de Compostela

    Today, 19 January, Sunday

    Time Temperature Precipitation Wind Pressure Humidity
    00:00 +7°C° 0 mm 2 mps 748 mmHg 97%
    01:00 +8°C° 0 mm 3 mps 748 mmHg 96%
    02:00 +8°C° 0 mm 3 mps 749 mmHg 95%
    03:00 +8°C° 0 mm 3 mps 749 mmHg 94%
    04:00 +6°C° 0 mm 4 mps 750 mmHg 92%
    05:00 +6°C° 0 mm 4 mps 750 mmHg 90%
    06:00 +6°C° 0 mm 4 mps 751 mmHg 88%
    07:00 +6°C° 0 mm 4 mps 751 mmHg 86%
    08:00 +5°C° 0 mm 4 mps 752 mmHg 84%
    09:00 +6°C° 0 mm 5 mps 752 mmHg 76%
    10:00 +8°C° 0 mm 5 mps 753 mmHg 69%
    11:00 +9°C° 0 mm 5 mps 753 mmHg 61%
    12:00 +10°C° 0 mm 4 mps 753 mmHg 59%
    13:00 +10°C° 0 mm 4 mps 753 mmHg 57%
    14:00 +10°C° 0 mm 4 mps 753 mmHg 55%
    15:00 +7°C° 0 mm 4 mps 753 mmHg 60%
    16:00 +7°C° 0 mm 3 mps 753 mmHg 65%
    17:00 +4°C° 0 mm 3 mps 753 mmHg 70%
    18:00 +4°C° 0 mm 3 mps 754 mmHg 73%
    19:00 +3°C° 0 mm 3 mps 754 mmHg 76%
    20:00 +3°C° 0 mm 3 mps 754 mmHg 79%
    21:00 +3°C° 0 mm 3 mps 755 mmHg 80%
    22:00 +3°C° 0 mm 3 mps 755 mmHg 81%
    23:00 +3°C° 0 mm 3 mps 755 mmHg 81%

    Tomorrow, 20 January, Monday

    Time Temperature Precipitation Wind Pressure Humidity
    00:00 +3°C° 0 mm 3 mps 754 mmHg 82%
    01:00 +3°C° 0 mm 3 mps 754 mmHg 82%
    02:00 +3°C° 0 mm 3 mps 754 mmHg 83%
    03:00 +3°C° 0 mm 3 mps 754 mmHg 82%
    04:00 +3°C° 0 mm 3 mps 753 mmHg 81%
    05:00 +3°C° 0 mm 3 mps 753 mmHg 81%
    06:00 +3°C° 0 mm 3 mps 753 mmHg 80%
    07:00 +3°C° 0 mm 4 mps 753 mmHg 79%
    08:00 +3°C° 0 mm 4 mps 753 mmHg 78%
    09:00 +4°C° 0 mm 4 mps 752 mmHg 71%
    10:00 +5°C° 0 mm 5 mps 752 mmHg 64%
    11:00 +7°C° 0 mm 6 mps 752 mmHg 58%
    12:00 +7°C° 0 mm 6 mps 751 mmHg 58%
    13:00 +5°C° 0 mm 6 mps 751 mmHg 58%
    14:00 +5°C° 0 mm 6 mps 750 mmHg 58%
    15:00 +5°C° 0 mm 6 mps 750 mmHg 62%
    16:00 +4°C° 0 mm 6 mps 750 mmHg 66%
    17:00 +3°C° 0 mm 6 mps 750 mmHg 70%
    18:00 +2°C° 0 mm 5 mps 750 mmHg 70%
    19:00 +2°C° 0 mm 5 mps 750 mmHg 70%
    20:00 +2°C° 0 mm 5 mps 750 mmHg 70%
    21:00 +2°C° 0 mm 5 mps 750 mmHg 72%
    22:00 +2°C° 0 mm 5 mps 750 mmHg 74%
    23:00 +2°C° 0 mm 5 mps 750 mmHg 76%

    Day after tomorrow, 21 January, Tuesday

    Time Temperature Precipitation Wind Pressure Humidity
    00:00 +3°C° 0 mm 4 mps 750 mmHg 76%
    01:00 +3°C° 0 mm 4 mps 750 mmHg 77%
    02:00 +3°C° 0 mm 4 mps 749 mmHg 78%
    03:00 +3°C° 0 mm 4 mps 749 mmHg 79%
    04:00 +3°C° 0 mm 4 mps 749 mmHg 80%
    05:00 +3°C° 0 mm 4 mps 748 mmHg 81%
    06:00 +3°C° 0 mm 4 mps 748 mmHg 80%
    07:00 +4°C° 0 mm 4 mps 748 mmHg 79%
    08:00 +4°C° 0 mm 4 mps 748 mmHg 78%
    09:00 +5°C° 0 mm 5 mps 748 mmHg 74%
    10:00 +6°C° 0 mm 5 mps 748 mmHg 69%
    11:00 +8°C° 0 mm 5 mps 747 mmHg 64%
    12:00 +8°C° 0 mm 5 mps 747 mmHg 65%
    13:00 +8°C° 0 mm 5 mps 746 mmHg 65%
    14:00 +8°C° 0 mm 5 mps 746 mmHg 66%
    15:00 +7°C° 0 mm 5 mps 746 mmHg 70%
    16:00 +6°C° 0 mm 5 mps 746 mmHg 74%
    17:00 +6°C° 0 mm 4 mps 746 mmHg 78%
    18:00 +6°C° 0 mm 4 mps 746 mmHg 79%
    19:00 +6°C° 0 mm 5 mps 746 mmHg 80%
    20:00 +6°C° 0 mm 5 mps 746 mmHg 81%
    21:00 +6°C° 0 mm 5 mps 746 mmHg 81%
    22:00 +6°C° 0 mm 5 mps 746 mmHg 80%
    23:00 +6°C° 0 mm 5 mps 746 mmHg 80%

    22 January, Wednesday

    Time Temperature Precipitation Wind Pressure Humidity
    00:00 +7°C° 0 mm 5 mps 745 mmHg 80%
    01:00 +7°C° 0 mm 5 mps 745 mmHg 80%
    02:00 +7°C° 0 mm 5 mps 745 mmHg 80%
    03:00 +7°C° 0 mm 5 mps 745 mmHg 80%
    04:00 +7°C° 0 mm 5 mps 744 mmHg 80%
    05:00 +7°C° 0 mm 5 mps 744 mmHg 80%
    06:00 +7°C° 0 mm 5 mps 744 mmHg 79%
    07:00 +8°C° 0 mm 5 mps 744 mmHg 78%
    08:00 +8°C° 0 mm 4 mps 745 mmHg 77%
    09:00 +9°C° 0 mm 5 mps 745 mmHg 72%
    10:00 +10°C° 0 mm 5 mps 745 mmHg 67%
    11:00 +12°C° 0 mm 5 mps 745 mmHg 62%
    12:00 +10°C° 0 mm 5 mps 744 mmHg 63%
    13:00 +10°C° 0 mm 5 mps 743 mmHg 65%
    14:00 +10°C° 0 mm 5 mps 743 mmHg 67%
    15:00 +9°C° 0 mm 5 mps 743 mmHg 71%
    16:00 +10°C° 0 mm 4 mps 743 mmHg 76%
    17:00 +8°C° 0 mm 4 mps 742 mmHg 80%
    18:00 +8°C° 0 mm 4 mps 742 mmHg 83%
    19:00 +7°C° 0 mm 4 mps 742 mmHg 85%
    20:00 +8°C° 0 mm 3 mps 742 mmHg 88%
    21:00 +8°C° 0 mm 3 mps 742 mmHg 87%
    22:00 +9°C° 0 mm 3 mps 742 mmHg 86%
    23:00 +9°C° 0 mm 3 mps 742 mmHg 86%

    23 January, Thursday

    Time Temperature Precipitation Wind Pressure Humidity
    00:00 +9°C° 0.2 mm 3 mps 742 mmHg 88%
    01:00 +8°C° 0.2 mm 3 mps 742 mmHg 91%
    02:00 +8°C° 0.2 mm 3 mps 741 mmHg 93%
    03:00 +8°C° 0.4 mm 3 mps 741 mmHg 94%
    04:00 +8°C° 0.4 mm 2 mps 741 mmHg 95%
    05:00 +8°C° 0.4 mm 2 mps 740 mmHg 96%
    06:00 +7°C° 0 mm 2 mps 741 mmHg 96%
    07:00 +7°C° 0 mm 2 mps 741 mmHg 96%
    08:00 +7°C° 0 mm 2 mps 741 mmHg 96%
    09:00 +8°C° 0 mm 2 mps 741 mmHg 91%
    10:00 +11°C° 0 mm 1 mps 741 mmHg 85%
    11:00 +12°C° 0 mm 1 mps 741 mmHg 80%
    12:00 +13°C° 0 mm 1 mps 741 mmHg 75%
    13:00 +13°C° 0 mm 1 mps 741 mmHg 69%
    14:00 +14°C° 0 mm 1 mps 740 mmHg 64%
    15:00 +12°C° 0 mm 1 mps 741 mmHg 72%
    16:00 +10°C° 0 mm 1 mps 741 mmHg 80%
    17:00 +9°C° 0 mm 1 mps 741 mmHg 88%
    18:00 +8°C° 0 mm 1 mps 741 mmHg 89%
    19:00 +8°C° 0 mm 1 mps 741 mmHg 89%
    20:00 +7°C° 0 mm 1 mps 742 mmHg 89%
    21:00 +7°C° 0 mm 1 mps 742 mmHg 89%
    22:00 +7°C° 0 mm 1 mps 742 mmHg 89%
    23:00 +7°C° 0 mm 1 mps 742 mmHg 89%

    24 January, Friday

    Time Temperature Precipitation Wind Pressure Humidity
    00:00 +6°C° 0 mm 1 mps 742 mmHg 88%
    01:00 +6°C° 0 mm 1 mps 742 mmHg 88%
    02:00 +6°C° 0 mm 1 mps 741 mmHg 87%
    03:00 +6°C° 0 mm 1 mps 741 mmHg 87%
    04:00 +5°C° 0 mm 1 mps 741 mmHg 88%
    05:00 +5°C° 0 mm 1 mps 741 mmHg 88%
    06:00 +6°C° 0 mm 1 mps 741 mmHg 86%
    07:00 +6°C° 0 mm 1 mps 741 mmHg 85%
    08:00 +6°C° 0 mm 1 mps 742 mmHg 83%
    09:00 +9°C° 0 mm 1 mps 742 mmHg 75%
    10:00 +11°C° 0 mm 1 mps 742 mmHg 68%
    11:00 +13°C° 0 mm 1 mps 742 mmHg 60%
    12:00 +13°C° 0 mm 1 mps 742 mmHg 62%
    13:00 +13°C° 0 mm 1 mps 741 mmHg 65%
    14:00 +13°C° 0 mm 1 mps 741 mmHg 67%
    15:00 +12°C° 0.1 mm 1 mps 741 mmHg 74%
    16:00 +10°C° 0.1 mm 1 mps 741 mmHg 81%
    17:00 +8°C° 0.1 mm 0 mps 741 mmHg 88%
    18:00 +7°C° 0 mm 0 mps 741 mmHg 90%
    19:00 +7°C° 0 mm 1 mps 741 mmHg 92%
    20:00 +7°C° 0 mm 1 mps 741 mmHg 94%
    21:00 +6°C° 0 mm 1 mps 741 mmHg 94%
    22:00 +6°C° 0 mm 1 mps 742 mmHg 95%
    23:00 +6°C° 0 mm 1 mps 742 mmHg 95%
    Show more